Time,TemperatureF,DewpointF,PressureIn,WindDirection,WindDirectionDegrees,WindSpeedMPH,WindSpeedGustMPH,Humidity,HourlyPrecipIn,Conditions,Clouds,dailyrainin,SoftwareType,DateUTC
2013-03-11 00:00:00,41.5,32.5,30.22,SW,218,5.0,8.0,70,0.00,,CLR,0.00,VWS V14.01,2013-03-11 07:00:00,
2013-03-11 00:30:00,41.4,32.0,30.22,SW,218,7.0,8.0,69,0.00,,CLR,0.00,VWS V14.01,2013-03-11 07:30:00,
2013-03-11 01:00:00,40.4,31.4,30.23,SW,218,3.0,7.0,70,0.00,,CLR,0.00,VWS V14.01,2013-03-11 08:00:00,
2013-03-11 01:30:00,41.4,30.9,30.23,SW,223,3.0,9.0,66,0.00,,CLR,0.00,VWS V14.01,2013-03-11 08:30:00,
2013-03-11 02:00:00,40.0,30.7,30.24,SW,222,3.0,7.0,69,0.00,,CLR,0.00,VWS V14.01,2013-03-11 09:00:00,
2013-03-11 02:30:00,38.3,30.4,30.24,SW,216,2.0,7.0,73,0.00,,CLR,0.00,VWS V14.01,2013-03-11 09:30:00,
2013-03-11 03:00:00,39.3,31.4,30.23,SW,216,5.0,8.0,73,0.00,,CLR,0.00,VWS V14.01,2013-03-11 10:00:00,
2013-03-11 03:30:00,36.6,30.1,30.23,SW,215,4.0,7.0,77,0.00,,CLR,0.00,VWS V14.01,2013-03-11 10:30:00,
2013-03-11 04:00:00,39.9,30.9,30.24,SW,215,6.0,7.0,70,0.00,,CLR,0.00,VWS V14.01,2013-03-11 11:00:00,
2013-03-11 04:30:00,39.3,31.7,30.24,SW,215,1.0,7.0,74,0.00,,CLR,0.00,VWS V14.01,2013-03-11 11:30:00,
2013-03-11 05:00:00,37.3,29.8,30.25,SW,215,1.0,3.0,74,0.00,,CLR,0.00,VWS V14.01,2013-03-11 12:00:00,
2013-03-11 05:30:00,38.4,31.2,30.25,SW,215,3.0,5.0,75,0.00,,CLR,0.00,VWS V14.01,2013-03-11 12:30:00,
2013-03-11 06:00:00,37.5,30.6,30.26,SW,215,2.0,7.0,76,0.00,,CLR,0.00,VWS V14.01,2013-03-11 13:00:00,
2013-03-11 06:30:00,33.9,29.3,30.26,ENE,62,3.0,8.0,83,0.00,,CLR,0.00,VWS V14.01,2013-03-11 13:30:00,
2013-03-11 07:00:00,34.5,29.3,30.26,ENE,62,3.0,5.0,81,0.00,,CLR,0.00,VWS V14.01,2013-03-11 14:00:00,
2013-03-11 07:30:00,33.9,29.6,30.27,NE,52,0.0,7.0,84,0.00,,CLR,0.00,VWS V14.01,2013-03-11 14:30:00,
2013-03-11 08:00:00,33.4,29.7,30.28,NE,52,5.0,6.0,86,0.00,,CLR,0.00,VWS V14.01,2013-03-11 15:00:00,
2013-03-11 08:30:00,34.2,30.2,30.28,NE,52,0.0,6.0,85,0.00,,CLR,0.00,VWS V14.01,2013-03-11 15:30:00,
2013-03-11 09:00:00,34.9,30.6,30.30,NE,52,0.0,0.0,84,0.00,,CLR,0.00,VWS V14.01,2013-03-11 16:00:00,
2013-03-11 09:30:00,36.7,31.7,30.30,NE,45,1.0,4.0,82,0.00,,CLR,0.00,VWS V14.01,2013-03-11 16:30:00,
2013-03-11 10:00:00,38.0,32.1,30.31,North,0,5.0,9.0,79,0.00,,CLR,0.00,VWS V14.01,2013-03-11 17:00:00,
2013-03-11 10:30:00,39.4,31.8,30.31,NW,315,6.0,10.0,74,0.00,,CLR,0.00,VWS V14.01,2013-03-11 17:30:00,
2013-03-11 11:00:00,41.3,31.9,30.31,NW,315,7.0,11.0,69,0.00,,CLR,0.00,VWS V14.01,2013-03-11 18:00:00,
2013-03-11 11:30:00,42.6,32.4,30.30,NW,315,6.0,10.0,67,0.00,,CLR,0.00,VWS V14.01,2013-03-11 18:30:00,
2013-03-11 12:00:00,43.9,30.9,30.30,NW,315,6.0,9.0,60,0.00,,CLR,0.00,VWS V14.01,2013-03-11 19:00:00,
2013-03-11 12:30:00,46.0,31.2,30.29,NNW,338,7.0,12.0,56,0.00,,CLR,0.00,VWS V14.01,2013-03-11 19:30:00,
2013-03-11 13:00:00,48.3,29.0,30.28,North,0,8.0,14.0,47,0.00,,CLR,0.00,VWS V14.01,2013-03-11 20:00:00,
2013-03-11 13:30:00,50.2,24.3,30.27,North,0,8.0,14.0,36,0.00,,CLR,0.00,VWS V14.01,2013-03-11 20:30:00,
2013-03-11 14:00:00,51.7,23.5,30.27,NNE,22,5.0,12.0,33,0.00,,CLR,0.00,VWS V14.01,2013-03-11 21:00:00,
2013-03-11 14:30:00,52.8,21.4,30.25,NE,45,4.0,9.0,29,0.00,,CLR,0.00,VWS V14.01,2013-03-11 21:30:00,
2013-03-11 15:00:00,53.4,22.8,30.25,North,0,4.0,8.0,30,0.00,,CLR,0.00,VWS V14.01,2013-03-11 22:00:00,
2013-03-11 15:30:00,53.8,23.1,30.24,ENE,68,4.0,9.0,30,0.00,,CLR,0.00,VWS V14.01,2013-03-11 22:30:00,
2013-03-11 16:00:00,53.8,23.9,30.23,North,0,4.0,9.0,31,0.00,,CLR,0.00,VWS V14.01,2013-03-11 23:00:00,
2013-03-11 16:30:00,52.4,24.2,30.24,WSW,248,4.0,9.0,33,0.00,,CLR,0.00,VWS V14.01,2013-03-11 23:30:00,
2013-03-11 17:00:00,52.6,24.3,30.23,WSW,248,4.0,7.0,33,0.00,,CLR,0.00,VWS V14.01,2013-03-12 00:00:00,
2013-03-11 17:30:00,51.7,23.5,30.22,WSW,248,2.0,5.0,33,0.00,,CLR,0.00,VWS V14.01,2013-03-12 00:30:00,
2013-03-11 18:00:00,51.2,23.8,30.22,WSW,248,1.0,4.0,34,0.00,,CLR,0.00,VWS V14.01,2013-03-12 01:00:00,
2013-03-11 18:30:00,50.3,24.4,30.22,WSW,248,3.0,6.0,36,0.00,,CLR,0.00,VWS V14.01,2013-03-12 01:30:00,
2013-03-11 19:00:00,49.6,25.0,30.20,SW,225,3.0,5.0,38,0.00,,CLR,0.00,VWS V14.01,2013-03-12 02:00:00,
2013-03-11 19:30:00,49.2,25.9,30.20,SW,225,4.0,5.0,40,0.00,,CLR,0.00,VWS V14.01,2013-03-12 02:30:00,
2013-03-11 20:00:00,48.4,29.1,30.20,SW,225,3.0,4.0,47,0.00,,CLR,0.00,VWS V14.01,2013-03-12 03:00:00,
2013-03-11 20:30:00,47.2,28.5,30.20,SW,225,2.0,4.0,48,0.00,,CLR,0.00,VWS V14.01,2013-03-12 03:30:00,
2013-03-11 21:00:00,46.7,27.6,30.20,WSW,248,3.0,4.0,47,0.00,,CLR,0.00,VWS V14.01,2013-03-12 04:00:00,
2013-03-11 21:30:00,46.2,27.1,30.19,SW,225,4.0,5.0,47,0.00,,CLR,0.00,VWS V14.01,2013-03-12 04:30:00,
2013-03-11 22:00:00,45.9,25.2,30.18,SW,225,5.0,7.0,44,0.00,,CLR,0.00,VWS V14.01,2013-03-12 05:00:00,
2013-03-11 22:30:00,44.5,26.5,30.18,SW,225,5.0,7.0,49,0.00,,CLR,0.00,VWS V14.01,2013-03-12 05:30:00,
2013-03-11 23:00:00,43.2,29.0,30.17,SSW,202,5.0,6.0,57,0.00,,CLR,0.00,VWS V14.01,2013-03-12 06:00:00,
2013-03-11 23:30:00,42.6,30.1,30.17,SSW,202,3.0,5.0,61,0.00,,CLR,0.00,VWS V14.01,2013-03-12 06:30:00,